Wind_Speed
12 15 16 11 9 11 12 14 18 18 14 18 15 15 12 17 13 12 6 1 4 4 7 15 19 21 25 24 21 17 15 15 12 7 6 6 6 5 9 12 10 7 4 3
13 16 15 16 14 11 15 16 19 21 10 13 18 21 20 21 20 13 10 4 8 9 9 13 20 23 25 24 21 19 15 10 8 8 8 7 6 6 8 9 12 9 6 4
10 10 11 16 17 14 16 17 19 16 12 13 17 18 9 16 15 13 11 6 11 8 5 11 16 19 23 25 22 18 14 11 8 6 8 7 5 6 7 8 9 12 10 9
8 8 5 9 16 18 16 18 18 16 13 6 8 8 9 17 17 18 16 13 15 16 13 11 13 19 21 21 20 19 18 14 10 6 4 5 6 7 8 10 14 11 14 15
3 4 2 6 9 14 16 17 16 12 11 10 7 5 13 18 10 13 15 8 13 17 16 13 12 14 17 23 21 18 18 17 14 9 5 6 6 6 10 9 12 10 9 17
8 6 3 4 4 9 10 14 14 13 8 3 7 5 16 14 19 18 14 11 12 21 19 17 15 16 18 20 21 19 17 15 14 12 9 7 7 7 7 7 7 9 12 14
7 6 7 5 4 3 7 9 6 8 4 6 8 4 18 12 15 20 18 13 14 19 18 22 23 20 18 14 15 15 14 14 12 11 10 9 9 9 8 7 7 7 10 11
3 4 6 4 8 8 3 4 7 7 8 7 5 5 10 10 15 16 16 11 13 15 19 19 21 19 18 13 11 10 11 12 12 10 10 11 12 11 10 9 8 6 7 12
2 3 4 4 8 10 9 4 6 3 4 3 3 8 15 9 13 14 13 13 12 9 13 14 15 19 20 18 14 10 8 9 11 11 12 12 13 12 9 10 9 8 8 11
1 1 5 9 6 10 6 5 3 5 3 5 3 5 7 14 13 12 6 10 11 8 7 10 11 15 17 16 18 18 13 11 8 11 12 12 12 12 12 13 11 9 10 11
4 3 6 13 8 7 3 2 3 4 4 3 3 3 4 9 13 11 1 6 5 5 6 8 12 18 21 19 17 15 13 11 10 10 11 11 11 12 13 13 12 12 13 12
5 6 7 7 5 3 4 2 3 3 4 5 2 3 4 7 10 10 6 4 3 4 2 8 13 17 24 19 16 14 14 11 10 8 9 11 13 14 13 13 13 14 14 14
4 4 7 2 3 5 2 4 4 5 3 4 4 2 4 6 8 8 7 6 3 1 4 1 4 13 21 21 21 19 19 15 14 11 9 11 13 15 15 14 14 14 15 16
9 8 6 5 5 5 9 10 9 6 5 5 9 12 6 8 9 7 5 6 6 5 6 3 2 5 10 23 24 24 20 16 16 16 16 15 15 16 17 17 17 18 17 17
12 9 10 13 14 16 17 16 16 16 14 9 11 13 13 9 8 11 10 7 10 11 9 9 7 3 7 13 21 20 20 20 20 19 15 17 18 22 23 24 23 22 22 20
14 15 19 23 21 22 26 26 26 25 23 24 21 20 15 14 10 11 13 12 11 13 13 13 7 4 9 7 6 13 13 3 7 11 18 19 21 16 23 29 32 30 28 28
22 17 14 11 12 11 15 18 19 23 22 19 18 19 20 17 15 14 12 12 8 5 5 4 5 7 7 4 4 4 13 27 18 14 16 17 20 25 26 29 33 32 33 35
25 20 14 8 6 6 9 7 2 5 10 14 12 7 5 7 7 8 7 9 9 9 10 8 7 6 7 8 9 11 11 12 27 30 21 25 27 29 29 28 35 40 40 38
7 14 9 6 11 11 8 9 8 7 13 13 11 12 11 10 9 8 7 7 7 6 4 5 6 5 7 9 9 11 17 18 20 25 29 31 33 34 31 30 33 37 43 50
5 8 14 10 5 5 6 13 12 10 12 11 11 13 14 16 16 15 15 13 11 11 11 11 12 14 13 14 14 16 17 20 26 26 28 34 40 38 37 32 30 34 36 43
6 5 12 13 10 10 14 12 13 11 13 14 16 17 19 19 19 17 20 18 17 16 17 17 16 18 20 20 22 22 23 25 28 30 33 32 30 30 30 28 30 35 32 37
7 4 6 8 8 7 13 12 9 10 13 16 17 23 24 23 24 23 22 21 22 21 21 23 23 24 26 28 28 27 25 26 26 27 28 30 31 29 25 24 25 28 32 30
9 8 5 5 7 9 10 14 24 25 22 15 17 22 26 27 27 27 25 25 25 26 28 30 30 30 30 30 29 28 28 29 31 30 30 29 30 31 29 26 24 25 25 28
19 16 16 18 21 19 20 23 24 26 29 28 26 28 31 33 33 34 33 33 33 33 34 34 34 34 33 33 33 33 34 36 37 39 39 38 35 33 32 28 27 25 24 23
26 25 24 25 22 23 21 22 25 32 33 35 35 36 37 37 37 38 38 37 37 38 38 38 38 37 37 37 37 37 40 42 43 43 41 41 42 38 35 33 28 26 24 23
28 24 21 21 21 27 27 28 27 28 29 31 33 34 34 36 38 36 36 36 38 42 42 41 39 38 38 38 40 40 41 42 43 44 42 42 43 41 35 33 31 30 27 22
Wind_Direction
218 223 246 273 279 299 314 323 321 333 316 301 318 315 334 327 311 317 310 347 149 181 192 191 195 196 188 179 175 170 172 183 194 205 190 190 193 211 221 220 217 222 193 160
228 231 240 255 269 278 294 306 314 336 309 288 307 309 306 313 334 301 289 251 167 205 215 199 193 193 194 186 176 169 162 159 174 190 199 207 230 222 236 234 230 213 197 180
245 240 235 247 255 267 275 285 306 320 327 287 298 305 325 325 331 312 278 232 184 200 210 203 205 197 192 193 186 175 169 167 161 183 223 219 227 216 222 217 219 220 229 220
258 243 231 250 255 262 267 274 293 316 323 321 320 298 317 336 324 329 321 260 198 192 186 192 202 206 199 186 177 177 175 181 187 199 229 217 209 213 213 217 216 231 242 225
228 189 277 279 259 254 257 270 285 299 314 326 320 272 304 329 334 340 321 298 206 193 188 181 171 187 195 189 185 179 184 187 191 198 207 213 211 213 210 229 242 246 224 216
255 236 289 309 252 227 226 263 273 291 306 280 297 264 302 328 323 321 320 290 190 193 193 184 173 173 183 196 192 189 188 196 201 201 205 209 215 222 222 225 224 242 236 225
243 233 257 324 8 256 229 264 248 258 258 273 293 275 269 303 314 309 310 288 189 186 186 183 186 187 185 194 196 194 198 201 208 216 215 213 218 219 225 240 238 235 239 227
96 125 125 38 24 2 323 279 239 245 236 257 226 231 269 311 330 311 304 241 172 174 187 190 195 194 193 184 188 189 194 203 208 218 222 222 225 225 225 236 245 244 244 222
106 139 89 28 346 351 325 283 263 248 236 249 231 268 277 306 313 308 296 209 172 164 183 195 194 206 210 205 210 213 197 199 212 217 227 229 231 237 239 241 241 235 239 227
76 225 258 319 303 307 300 263 267 221 213 230 214 269 297 329 326 324 300 198 174 181 174 185 202 195 198 198 196 211 209 220 226 224 229 233 236 238 233 237 239 236 236 235
342 315 314 331 279 246 255 306 241 218 223 244 231 219 305 341 1 6 167 137 166 223 205 220 200 198 201 196 199 204 202 210 220 223 218 223 231 233 233 238 236 233 233 234
303 317 314 311 200 121 80 57 35 239 214 226 252 237 287 337 357 359 2 161 242 268 230 213 219 202 196 201 202 212 216 213 211 215 220 227 222 227 234 237 239 239 244 246
280 294 318 319 187 224 325 338 349 334 277 220 229 215 318 333 335 344 339 28 70 46 12 190 155 173 183 187 185 196 198 202 218 226 231 233 237 237 232 229 234 246 249 251
275 272 252 278 288 281 283 281 292 292 268 262 259 272 305 304 301 304 320 302 309 336 24 34 206 210 192 191 193 199 199 202 211 222 234 241 248 250 247 235 232 233 241 243
252 245 256 268 274 269 268 272 272 268 264 260 269 273 278 276 276 286 291 288 274 287 298 307 324 296 217 242 185 194 201 206 219 227 231 241 250 252 256 252 241 236 234 240
263 277 282 279 277 265 264 267 261 257 257 262 270 267 262 266 262 259 260 270 284 288 294 308 341 24 63 102 155 199 185 174 234 251 254 237 230 242 255 254 251 245 242 240
278 274 277 272 272 265 271 274 256 254 251 251 261 262 257 251 252 255 251 250 268 293 300 309 329 353 356 16 345 311 254 238 281 277 269 262 255 254 252 250 249 251 255 256
266 264 248 264 228 246 258 206 214 221 236 226 240 232 240 234 239 250 249 249 250 256 262 282 292 303 321 319 304 295 280 256 245 269 283 280 282 281 279 268 253 252 252 259
242 234 220 220 221 261 222 244 233 221 225 230 244 241 239 233 235 246 250 240 236 235 263 284 302 315 320 318 311 296 282 284 276 279 285 286 286 285 283 284 280 263 258 252
251 224 210 221 236 244 243 239 233 229 244 239 266 248 239 235 236 233 231 234 237 240 255 261 268 272 283 301 304 305 299 297 297 293 286 281 278 280 282 282 281 267 266 261
255 250 224 233 242 259 252 239 233 226 256 257 266 247 244 245 244 246 241 240 243 248 260 266 268 271 278 288 293 293 289 285 286 288 288 288 283 282 275 277 278 273 267 263
267 238 233 229 229 260 248 248 249 251 262 263 260 243 240 246 247 244 247 251 250 255 259 267 273 276 276 278 281 285 284 281 283 284 286 285 286 288 289 279 272 271 268 267
267 233 230 234 247 270 265 264 284 281 284 267 259 251 250 253 252 255 256 257 259 261 262 264 268 272 278 283 286 288 290 294 296 298 297 292 288 287 286 285 280 272 270 269
271 270 271 278 280 281 279 280 280 277 274 270 266 252 250 252 255 256 256 258 262 265 261 263 266 271 271 274 279 283 287 290 291 294 297 293 289 284 282 279 279 280 278 272
275 279 290 292 291 290 282 274 269 267 269 271 267 260 252 254 256 257 257 260 262 261 260 261 263 267 270 272 276 279 281 282 284 287 290 291 291 291 291 280 274 272 273 274
280 291 290 291 294 286 277 277 279 277 272 266 265 265 264 265 269 268 266 262 257 255 257 261 263 267 270 273 274 276 277 278 280 283 285 290 292 294 292 284 271 266 266 267
Height
3182 3184 3183 3184 3184 3183 3183 3182 3180 3178 3177 3175 3173 3172 3172 3172 3171 3171 3172 3173 3173 3175 3176 3177 3180 3183 3186 3188 3191 3193 3195 3197 3199 3200 3202 3203 3205 3205 3205 3206 3208 3210 3211 3211
3181 3181 3182 3182 3182 3182 3181 3181 3179 3176 3173 3173 3172 3170 3170 3169 3168 3168 3168 3170 3172 3172 3174 3175 3177 3179 3183 3187 3189 3191 3193 3195 3197 3199 3201 3202 3203 3203 3203 3205 3207 3208 3209 3211
3179 3181 3180 3180 3180 3180 3180 3180 3179 3178 3173 3172 3170 3168 3168 3167 3165 3165 3165 3167 3170 3171 3173 3174 3175 3178 3181 3184 3187 3189 3191 3193 3195 3197 3199 3200 3201 3201 3202 3203 3204 3205 3207 3209
3177 3177 3178 3178 3177 3178 3179 3178 3178 3176 3174 3173 3172 3170 3166 3166 3164 3163 3162 3163 3166 3168 3171 3173 3175 3177 3179 3183 3185 3187 3188 3192 3194 3195 3197 3199 3199 3200 3200 3201 3201 3203 3204 3206
3177 3177 3177 3176 3175 3175 3176 3176 3175 3174 3173 3171 3170 3171 3165 3163 3162 3163 3160 3159 3163 3167 3169 3171 3172 3175 3179 3181 3183 3185 3187 3188 3190 3192 3194 3196 3197 3198 3198 3199 3200 3201 3200 3203
3174 3175 3175 3174 3173 3172 3173 3173 3172 3171 3171 3171 3169 3170 3164 3163 3160 3159 3158 3157 3158 3163 3166 3170 3174 3175 3176 3179 3180 3182 3183 3186 3188 3189 3191 3193 3195 3196 3197 3197 3198 3198 3199 3201
3172 3173 3173 3174 3172 3171 3171 3171 3171 3171 3170 3168 3167 3168 3164 3163 3160 3156 3155 3154 3156 3159 3163 3167 3170 3172 3174 3176 3178 3179 3181 3182 3184 3186 3188 3191 3193 3194 3196 3196 3196 3196 3197 3199
3172 3174 3173 3173 3172 3172 3170 3169 3169 3167 3166 3165 3165 3165 3163 3161 3158 3156 3154 3153 3154 3156 3161 3165 3168 3170 3172 3175 3177 3179 3179 3181 3182 3184 3187 3189 3191 3193 3194 3194 3195 3195 3195 3197
3173 3174 3173 3172 3171 3172 3169 3168 3167 3166 3165 3165 3163 3162 3161 3160 3158 3156 3153 3152 3154 3156 3159 3162 3166 3170 3171 3174 3177 3179 3180 3180 3181 3182 3184 3186 3188 3190 3191 3192 3193 3193 3194 3196
3173 3173 3172 3171 3170 3169 3168 3167 3166 3164 3164 3162 3161 3160 3159 3157 3155 3153 3151 3151 3153 3155 3158 3160 3162 3165 3169 3171 3174 3177 3178 3179 3180 3180 3182 3184 3186 3187 3189 3189 3190 3191 3193 3193
3172 3172 3172 3169 3167 3166 3165 3164 3162 3162 3162 3159 3157 3158 3158 3157 3155 3152 3151 3151 3152 3154 3156 3158 3159 3161 3165 3167 3170 3173 3174 3176 3177 3178 3179 3181 3183 3184 3186 3187 3188 3189 3190 3191
3171 3171 3169 3168 3166 3165 3163 3161 3160 3160 3161 3159 3158 3157 3155 3155 3153 3152 3151 3150 3150 3151 3153 3155 3155 3157 3160 3164 3168 3170 3172 3173 3175 3176 3177 3179 3180 3181 3182 3184 3185 3186 3188 3189
3169 3169 3168 3166 3166 3165 3163 3162 3160 3158 3158 3157 3156 3155 3154 3153 3152 3152 3150 3149 3149 3151 3151 3151 3152 3153 3157 3160 3162 3164 3167 3169 3173 3175 3176 3177 3178 3178 3179 3180 3182 3184 3186 3187
3166 3166 3167 3166 3165 3164 3163 3161 3159 3158 3158 3156 3155 3153 3154 3153 3152 3151 3150 3149 3149 3149 3149 3151 3151 3152 3153 3155 3157 3159 3162 3165 3167 3169 3171 3174 3176 3177 3178 3178 3178 3179 3181 3182
3163 3163 3162 3161 3161 3160 3158 3157 3156 3155 3154 3154 3153 3152 3151 3151 3151 3150 3149 3149 3148 3147 3147 3149 3150 3150 3150 3152 3150 3156 3159 3160 3161 3163 3165 3168 3171 3172 3173 3175 3176 3176 3176 3177
3159 3158 3157 3155 3156 3154 3151 3151 3150 3149 3149 3148 3149 3148 3149 3149 3149 3149 3149 3147 3146 3146 3146 3146 3147 3148 3150 3149 3147 3151 3154 3157 3161 3161 3163 3162 3162 3164 3166 3169 3171 3172 3172 3171
3153 3153 3152 3150 3149 3148 3146 3141 3140 3141 3143 3145 3145 3146 3146 3146 3146 3146 3146 3146 3146 3146 3146 3146 3145 3145 3145 3147 3148 3149 3150 3147 3156 3156 3156 3157 3157 3158 3160 3162 3162 3165 3167 3167
3145 3147 3149 3148 3147 3145 3139 3138 3138 3138 3139 3141 3142 3142 3142 3143 3143 3144 3144 3144 3145 3145 3145 3145 3146 3145 3145 3144 3144 3145 3146 3149 3148 3148 3148 3148 3148 3149 3150 3151 3153 3154 3155 3157
3139 3140 3143 3144 3142 3138 3137 3137 3137 3138 3139 3139 3139 3139 3140 3140 3141 3142 3142 3142 3143 3144 3144 3143 3142 3142 3142 3142 3142 3141 3140 3138 3140 3142 3141 3139 3139 3140 3140 3140 3141 3142 3142 3143
3138 3138 3140 3139 3139 3135 3133 3133 3134 3135 3136 3136 3137 3136 3136 3137 3138 3139 3139 3139 3139 3140 3141 3141 3140 3139 3138 3137 3137 3136 3135 3134 3133 3133 3133 3132 3132 3131 3131 3130 3130 3129 3130 3131
3135 3136 3136 3136 3135 3132 3131 3131 3132 3134 3137 3132 3132 3132 3132 3134 3135 3134 3134 3134 3134 3134 3134 3134 3135 3134 3134 3133 3133 3133 3132 3132 3129 3126 3122 3121 3122 3121 3120 3120 3120 3119 3119 3118
3133 3133 3132 3131 3131 3130 3128 3128 3130 3129 3127 3127 3126 3126 3127 3128 3128 3128 3129 3129 3129 3129 3129 3128 3128 3128 3128 3127 3127 3125 3123 3121 3120 3118 3116 3114 3112 3110 3111 3111 3110 3110 3109 3109
3129 3129 3129 3130 3127 3125 3125 3125 3124 3122 3122 3122 3123 3122 3122 3122 3122 3122 3122 3122 3122 3121 3121 3120 3120 3120 3119 3117 3117 3116 3114 3113 3111 3110 3108 3106 3104 3102 3102 3102 3102 3102 3101 3099
3122 3122 3122 3122 3121 3120 3119 3118 3117 3115 3113 3113 3114 3115 3114 3114 3113 3113 3113 3112 3112 3111 3111 3110 3110 3110 3110 3109 3108 3106 3105 3102 3101 3100 3099 3097 3095 3094 3093 3093 3093 3091 3093 3093
3116 3116 3115 3114 3114 3110 3109 3108 3105 3103 3103 3103 3102 3102 3103 3103 3103 3103 3103 3102 3101 3100 3100 3100 3100 3100 3100 3099 3098 3097 3094 3092 3090 3088 3088 3087 3085 3085 3084 3083 3083 3083 3084 3085
3108 3109 3108 3105 3106 3101 3100 3099 3097 3094 3094 3093 3091 3091 3091 3090 3090 3090 3089 3090 3090 3090 3089 3089 3089 3089 3088 3087 3086 3085 3083 3081 3079 3077 3076 3075 3074 3073 3073 3073 3073 3074 3075 3077